Home   Weather   Hoyerswerda   Past weeks

Flag for Germany Past Weather in Hoyerswerda, Saxony, Germany — Yesterday and Last 2 Weeks

Now
23 °F

Clear.


Feels Like: 17 °F
Forecast: 24 / 35 °F
Wind: 5 mph from South

Location: Dresden-Klotzsche

Current Time: Dec 4, 2016 at 7:21:08 am

Latest Report: Dec 4, 2016 at 6:50 am


Visibility: 10 mi

Pressure: 30.36 "Hg

Humidity: 100%

Dew Point: 23 °F

Location of HoyerswerdaLocation

Past Weather in Hoyerswerda — Graph

°F

Hoyerswerda Temperature Yesterday

Maximum temperature yesterday: 36 °F (at 2:50 pm)
Minimum temperature yesterday: 25 °F (at 11:50 pm)
Average temperature yesterday: 30 °F

High & Low Weather Summary for the Past Weeks

 TemperatureHumidityPressure
High54 °F (Nov 21, 12:20 pm)100% (Nov 19, 4:20 pm)30.54 "Hg (Nov 19, 4:20 pm)
Low21 °F (Nov 30, 1:50 am)44% (Nov 30, 11:20 am)29.71 "Hg (Nov 20, 11:50 am)
Average38 °F87%30.09 "Hg
* Reported Nov 19 6:20 am — Dec 4 6:20 am, Hoyerswerda, Weather by CustomWeather, © 2016

Note: Actual official high and low records may vary slightly from our data, if they occured in-between our weather recording intervals... More about our weather records

Advertising

Hoyerswerda Weather History for the Previous 24 Hours

Scroll right to see more
 ConditionsComfort  
Time TempWeatherWind HumidityBarometerVisibility
6:20 am
Sun, Dec 4
23 °FClear.6 mph100%30.36 "Hg10 mi
5:50 am23 °FClear.5 mph100%30.36 "Hg10 mi
5:20 am25 °FClear.5 mph93%30.36 "Hg10 mi
4:50 am23 °FClear.3 mph100%30.36 "Hg10 mi
4:20 am23 °FClear.3 mph100%30.36 "Hg10 mi
3:50 am23 °FClear.3 mph100%30.36 "Hg10 mi
3:20 am25 °FClear.6 mph93%30.36 "Hg10 mi
2:50 am25 °FClear.5 mph93%30.36 "Hg10 mi
2:20 am25 °FClear.5 mph100%30.36 "Hg10 mi
1:50 am25 °FClear.2 mph100%30.36 "Hg10 mi
1:20 am25 °FClear.3 mph100%30.36 "Hg10 mi
12:50 am27 °FClear.5 mph100%30.36 "Hg10 mi
12:20 am27 °FClear.5 mph100%30.36 "Hg10 mi
11:50 pm
Sat, Dec 3
25 °FClear.5 mph100%30.33 "Hg10 mi
11:20 pm27 °FClear.2 mph100%30.33 "Hg10 mi
10:50 pm27 °FClear.3 mph100%30.33 "Hg10 mi
10:20 pm27 °FClear.3 mph93%30.33 "Hg10 mi
9:50 pm27 °FClear.5 mph100%30.33 "Hg10 mi
9:20 pm27 °FClear.2 mph100%30.33 "Hg10 mi
8:50 pm27 °FClear.2 mph100%30.33 "Hg10 mi
8:20 pm28 °FClear.3 mph93%30.33 "Hg10 mi
7:50 pm30 °FClear.3 mph93%30.33 "Hg10 mi
7:20 pm30 °FClear.1 mph93%30.33 "Hg10 mi
6:50 pm30 °FClear.3 mph93%30.30 "Hg10 mi
6:20 pm30 °FClear.2 mph93%30.30 "Hg10 mi
5:50 pm30 °FClear.1 mph93%30.30 "Hg10 mi
5:20 pm32 °FClear.No wind87%30.30 "Hg10 mi
4:50 pm30 °FClear.2 mph93%30.30 "Hg10 mi
4:20 pm32 °FClear.2 mph87%30.30 "Hg10 mi
3:50 pm34 °FSunny.2 mph81%30.30 "Hg10 mi
3:20 pm34 °FSunny.3 mph81%30.27 "Hg10 mi
2:50 pm36 °FPassing clouds.3 mph75%30.27 "HgN/A
2:20 pm34 °FPartly sunny.3 mph81%30.27 "HgN/A
1:50 pm34 °FPartly sunny.3 mph81%30.27 "HgN/A
1:20 pm34 °FPassing clouds.5 mph81%30.27 "HgN/A
12:50 pm34 °FPassing clouds.5 mph81%30.27 "HgN/A
12:20 pm34 °FPassing clouds.5 mph81%30.27 "HgN/A
11:50 am34 °FPassing clouds.3 mph81%30.27 "HgN/A
11:20 am32 °FPassing clouds.5 mph87%30.27 "HgN/A
10:50 am32 °FScattered clouds.5 mph80%30.30 "HgN/A
10:20 am30 °FPassing clouds.6 mph86%30.30 "HgN/A
9:50 am30 °FScattered clouds.3 mph86%30.27 "HgN/A
9:20 am28 °FBroken clouds.5 mph93%30.27 "HgN/A
8:50 am30 °FPartly sunny.5 mph86%30.27 "HgN/A
8:20 am28 °FPartly sunny.2 mph93%30.24 "HgN/A
7:50 am28 °FBroken clouds.3 mph86%30.24 "HgN/A
7:20 am28 °FPassing clouds.3 mph86%30.24 "HgN/A
Weather by CustomWeather, © 2016

See weather overviewHow to use our weather pages